Regional Weather Roundup
Issued by NWS Kansas City/Pleasant Hill, MO

Home | Current Version | Previous Version | Text Only | Print | Product List | Glossary On
Versions: 1 2 3 4 5 6 7 8 9 10 11 12 13 14 15 16 17 18 19 20 21 22 23 24 25 26 27 28 29 30 31 32 33 34 35 36 37 38 39 40 41 42 43 44 45 46 47 48 49 50
421
ASUS43 KEAX 251210
RWREAX

WEATHER ROUNDUP FOR EASTERN KANSAS AND NORTHWEST MISSOURI
NATIONAL WEATHER SERVICE KANSAS CITY/PLEASANT HILL MO
700 AM CDT WED APR 25 2018

KSZ040-057-103>105-MOZ028-029-037-043-251300-
...KANSAS CITY METROPOLITAN AREA...

CITY           SKY/WX    TMP DP  RH WIND       PRES   REMARKS
K.C. INTL      CLOUDY    50  44  80 N7        30.14R
6HR MIN TEMP:  50; 6HR MAX TEMP:  57;

K.C. DOWNTOWN  CLOUDY    54  43  66 NW8       30.13R
6HR MIN TEMP:  54; 6HR MAX TEMP:  60;

LEES SUMMIT    CLOUDY    53  44  71 NW7       30.14R
6HR MIN TEMP:  53; 6HR MAX TEMP:  59;

OLATHE - IXD   LGT RAIN  52  48  86 NW7       30.15R
6HR MIN TEMP:  52; 6HR MAX TEMP:  58; 6HR PCP: TRACE;

OLATHE - OJC   CLOUDY    52  45  77 NW6       30.14R
6HR MIN TEMP:  52; 6HR MAX TEMP:  59;

LAWRENCE       LGT RAIN  50  48  93 NW8       30.16R

$$

MOZ001>008-011>017-020>025-030>033-038>040-044>046-053-054-251300-
...NORTHERN AND CENTRAL MISSOURI...

CITY           SKY/WX    TMP DP  RH WIND       PRES   REMARKS
ST. JOSEPH     CLOUDY    49  47  93 N9        30.16R
6HR MIN TEMP:  49; 6HR MAX TEMP:  56; 6HR PCP: TRACE;

MOSBY          CLOUDY    52  43  71 CALM      30.12R
WARRENSBURG    CLOUDY    54  41  62 NW6       30.11R
WHITEMAN AFB   CLOUDY    54  43  66 N8        30.05S
6HR MIN TEMP:  54; 6HR MAX TEMP:  59;

CLINTON        CLOUDY    55  46  71 NW8       30.11R
SEDALIA        CLOUDY    56  46  69 N9        30.09S
6HR MIN TEMP:  56; 6HR MAX TEMP:  61;

WARSAW         NOT AVBL
CHILLICOTHE      N/A     53  40  61 N6        30.13S
6HR MIN TEMP:  53; 6HR MAX TEMP:  62;

KIRKSVILLE     CLOUDY    51  39  63 N14       30.12R
6HR MIN TEMP:  51; 6HR MAX TEMP:  58;


$$

MOZ041-047>049-056>058-063>065-088>090-097-251300-
...EASTERN AND SOUTHERN MISSOURI...

CITY           SKY/WX    TMP DP  RH WIND       PRES   REMARKS
ST. LOUIS INTL MOCLDY    50  41  71 W8        30.04R
6HR MIN TEMP:  47; 6HR MAX TEMP:  56;

SPIRIT OF STL  CLOUDY    51  42  71 CALM      30.04R
COLUMBIA       MOCLDY    54  42  64 N10       30.06F
JEFFERSON CITY CLOUDY    54  43  66 W3        30.06S
ROLLA          MOCLDY    51  40  65 N5        30.05S
OSAGE BEACH    CLOUDY    51  44  77 CALM      30.08R
SPRINGFIELD    CLOUDY    54  44  69 NW7       30.09R
BRANSON        MOCLDY    52  41  66 CALM      30.08R
JOPLIN         LGT RAIN  53  50  89 NW9       30.15R
WEST PLAINS    PTCLDY    51  42  71 N7        30.06R

$$

IAZ060-094-KSZ022-034>040-054-083-096-NEZ052-066-093-251300-
...KANSAS...SOUTHEAST NEBRASKA AND IOWA...

CITY           SKY/WX    TMP DP  RH WIND       PRES   REMARKS
TOPEKA         LGT RAIN  50  49  96 NW5       30.17R
6HR MIN TEMP:  50; 6HR MAX TEMP:  55; 6HR PCP:  0.04;

MANHATTAN      RAIN      50  49  96 N6        30.18R FOG
EMPORIA        LGT RAIN  49  48  97 N3        30.16F FOG
CHANUTE        LGT RAIN  52  50  93 W6        30.17R
WICHITA        CLOUDY    45  45 100 NW21      30.21F
OMAHA          LGT RAIN  44  40  85 N14       30.23R
LINCOLN        CLOUDY    43  39  86 N17       30.25R
FALLS CITY     CLOUDY    48  44  86 N8G16     30.19R
LAMONI         CLOUDY    49  39  68 N9        30.14R
DES MOINES     CLOUDY    48  36  63 N12       30.17R

$$





USA.gov is the U.S. government's official web portal to all federal, state and local government web resources and services.